This is the latest recevied weather packets stored in our database for station/object KB1JL-13. If no packets are shown the sender has not sent any weather packets the latest 10 day(s).
| Time | Temp. | Humidity | Pressure | Rain* | Wind** | Luminosity | Snow |
|---|---|---|---|---|---|---|---|
| 1777644111 | 11.11° C | 65% | 1023.7 hPa | 0 mm | - | 391 W/m² | - |
| 1777643808 | 11.11° C | 64% | 1023.7 hPa | 0 mm | - | 176 W/m² | - |
| 1777643202 | 11.67° C | 63% | 1023.7 hPa | 0 mm | - | 776 W/m² | - |
| 1777642595 | 11.11° C | 68% | 1023.7 hPa | 0 mm | - | 504 W/m² | - |
| 1777642292 | 11.67° C | 64% | 1023.7 hPa | 0 mm | - | 289 W/m² | - |
| 1777641989 | 11.11° C | 66% | 1023.7 hPa | 0 mm | - | 372 W/m² | - |
| 1777641684 | 11.11° C | 67% | 1023.7 hPa | 0 mm | - | 412 W/m² | - |
| 1777641380 | 10.56° C | 67% | 1024 hPa | 0 mm | - | 281 W/m² | - |
| 1777641075 | 10.56° C | 68% | 1024 hPa | 0 mm | - | 406 W/m² | - |
| 1777640469 | 10.56° C | 68% | 1024 hPa | 0 mm | - | 211 W/m² | - |
| 1777639560 | 10.56° C | 71% | 1023.7 hPa | 0 mm | - | 222 W/m² | - |
| 1777638648 | 10° C | 72% | 1023.7 hPa | 0 mm | - | 215 W/m² | - |
| 1777638345 | 9.44° C | 73% | 1023.7 hPa | 0 mm | - | 211 W/m² | - |
| 1777638041 | 10° C | 71% | 1023.7 hPa | 0 mm | - | 258 W/m² | - |
| 1777637737 | 10° C | 71% | 1023.7 hPa | 0 mm | - | 246 W/m² | - |
| 1777636827 | 9.44° C | 74% | 1023.7 hPa | 0 mm | - | 210 W/m² | - |
| 1777636214 | 8.89° C | 74% | 1023.7 hPa | 0 mm | - | 186 W/m² | - |
| 1777635599 | 8.33° C | 75% | 1023.7 hPa | 0 mm | - | 147 W/m² | - |
| 1777635296 | 8.33° C | 75% | 1023.4 hPa | 0 mm | - | 145 W/m² | - |
| 1777634993 | 8.33° C | 76% | 1023.4 hPa | 0 mm | - | 124 W/m² | - |
| 1777634689 | 8.33° C | 76% | 1023.4 hPa | 0 mm | - | 117 W/m² | - |
| 1777634387 | 7.78° C | 76% | 1023.4 hPa | 0 mm | - | 103 W/m² | - |
| 1777634083 | 7.78° C | 77% | 1023.7 hPa | 0 mm | - | 89 W/m² | - |
| 1777633780 | 7.22° C | 77% | 1023.7 hPa | 0 mm | - | 79 W/m² | - |
| 1777633478 | 7.22° C | 79% | 1023.7 hPa | 0 mm | - | 50 W/m² | - |
* Rain latest hour (hover to see other rain measurements)
** Current wind speed in m/s (hover to see current wind gust speed)